Hourly Data Report for December 16, 2020

MUSKOKA
ONTARIO
Current Station Operator: NAVCAN

44°58'29.000" N
79°18'12.000" W
281.90 m
6115529
71532
YQA

Download Data

Hourly Data (December 2020)
Hourly Data Report for December 16, 2020
TIME
LST
Temp Definition
°C
Dew Point Definition
°C
Rel Hum Definition
%
Precip. Amount Definition
mm

Wind Dir Definition
10's deg

Wind Spd Definition
km/h
Visibility Definition
km
Stn Press Definition
kPa
Hmdx Definition


Wind Chill Definition


Weather Definition


00:00 -13.3 -17.0 74 0.0 LegendMM 4 16.1 99.59   -16 LegendNANA
01:00 -13.7 -17.2 75 0.0 LegendMM 4 16.1 99.54   -16 LegendNANA
02:00 -13.8 -17.5 74 0.0 10 8 16.1 99.56   -19 LegendNANA
03:00 -14.1 -18.5 70 0.0 10 11 16.1 99.59   -21 LegendNANA
04:00 -14.0 -18.0 72 0.0 11 11 16.1 99.59   -20 LegendNANA
05:00 -14.3 -18.7 70 0.0 12 15 16.1 99.53   -22 LegendNANA
06:00 -14.5 -19.1 69 0.0 10 11 16.1 99.47   -21 LegendNANA
07:00 -14.6 -19.5 67 0.0 9 11 16.1 99.48   -21 LegendNANA
08:00 -14.5 -19.1 68 0.0 8 9 16.1 99.38   -20 LegendNANA
09:00 -14.1 -19.5 64 0.0 11 9 16.1 99.40   -20 LegendNANA
10:00 -13.5 -19.0 64 0.0 10 9 16.1 99.37   -19 LegendNANA
11:00 -12.5 -19.5 56 0.0 9 11 16.1 99.28   -19 LegendNANA
12:00 -11.5 -19.3 53 0.0 10 9 16.1 99.17   -17 LegendNANA
13:00 -10.4 -20.0 46 0.0 10 13 16.1 99.11   -17 LegendNANA
14:00 -9.8 -18.2 51 0.0 8 9 9.7 99.04   -15 Snow
15:00 -9.1 -16.6 55 0.0 8 13 16.1 98.88   -15 LegendNANA
16:00 -9.3 -17.0 54 0.0 8 8 16.1 98.82   -14 LegendNANA
17:00 -9.3 -18.9 46 0.0 10 11 16.1 98.82   -15 LegendNANA
18:00 -9.7 -19.6 45 0.0 10 9 16.1 98.83   -15 LegendNANA
19:00 -9.8 -19.7 45 0.0 7 9 16.1 98.78   -15 LegendNANA
20:00 -9.8 -20.4 42 0.0 9 11 16.1 98.76   -15 LegendNANA
21:00 -9.9 -20.0 44 0.0 10 13 16.1 98.67   -16 LegendNANA
22:00 -10.2 -18.8 50 0.0 7 11 16.1 98.61   -16 LegendNANA
23:00 -10.3 -18.9 50 0.0 8 8 16.1 98.56   -15 LegendNANA

Notes on Data Quality.

Legend

  • E = Estimated
  • M = Missing
  • NA = Not Available*
  • [empty] = Indicates an unobserved value
Date modified: